TimeCET,TemperatureF,Dew PointF,Humidity,Sea Level PressureIn,VisibilityMPH,Wind Direction,Wind SpeedMPH,Gust SpeedMPH,PrecipitationIn,Events,Conditions,WindDirDegrees,DateUTC
12:00 AM,48.2,41.0,76,29.98,6.2,SSW,13.8,-,N/A,,Overcast,210,2012-11-17 23:00:00
12:30 AM,48.2,41.0,76,29.95,6.2,SW,13.8,-,N/A,,Overcast,220,2012-11-17 23:30:00
1:00 AM,47,40,70,29.99,7,SW,13.4,,,,Overcast,220,2012-11-18 00:00:00
1:00 AM,48.2,41.0,76,29.95,6.2,SW,13.8,-,N/A,,Overcast,220,2012-11-18 00:00:00
1:30 AM,48.2,41.0,76,29.95,6.2,SW,15.0,-,N/A,,Overcast,220,2012-11-18 00:30:00
2:00 AM,48.2,41.0,76,29.95,6.2,SW,18.4,-,N/A,,Overcast,220,2012-11-18 01:00:00
2:30 AM,48.2,41.0,76,29.95,6.2,SW,15.0,-,N/A,,Overcast,220,2012-11-18 01:30:00
3:00 AM,48.2,41.0,76,29.95,6.2,SW,13.8,-,N/A,,Overcast,220,2012-11-18 02:00:00
3:30 AM,48.2,41.0,76,29.95,6.2,WSW,11.5,-,N/A,,Overcast,240,2012-11-18 02:30:00
4:00 AM,48.2,42.8,82,29.95,6.2,SW,12.7,-,N/A,,Overcast,230,2012-11-18 03:00:00
4:30 AM,46.4,41.0,81,29.95,5.6,WSW,11.5,-,N/A,,Overcast,240,2012-11-18 03:30:00
5:00 AM,46.4,42.8,87,29.95,6.2,WSW,10.4,-,N/A,,Overcast,240,2012-11-18 04:00:00
5:30 AM,44.6,42.8,93,29.95,6.2,WSW,11.5,-,N/A,,Overcast,240,2012-11-18 04:30:00
6:00 AM,44.6,42.8,93,29.95,6.2,SW,9.2,-,N/A,,Overcast,230,2012-11-18 05:00:00
6:30 AM,46.4,42.8,87,29.95,5.0,WSW,9.2,-,N/A,,Overcast,240,2012-11-18 05:30:00
7:00 AM,46,42,80,29.97,4,WSW,11.2,,,,Mist,240,2012-11-18 06:00:00
7:00 AM,46.4,42.8,87,29.95,3.7,WSW,10.4,-,N/A,,Overcast,240,2012-11-18 06:00:00
7:30 AM,46.4,42.8,87,29.95,3.1,SW,12.7,-,N/A,,Overcast,230,2012-11-18 06:30:00
8:00 AM,46.4,42.8,87,29.95,3.7,SW,15.0,-,N/A,,Overcast,230,2012-11-18 07:00:00
8:30 AM,46.4,42.8,87,29.95,3.7,WSW,15.0,-,N/A,,Overcast,240,2012-11-18 07:30:00
9:00 AM,46.4,42.8,87,29.95,3.7,SW,15.0,-,N/A,,Overcast,230,2012-11-18 08:00:00
9:30 AM,46.4,42.8,87,29.95,4.3,SW,15.0,-,N/A,,Mostly Cloudy,230,2012-11-18 08:30:00
10:00 AM,46.4,42.8,87,29.95,4.3,WSW,16.1,-,N/A,,Mostly Cloudy,240,2012-11-18 09:00:00
10:30 AM,46.4,42.8,87,29.98,5.0,WSW,15.0,-,N/A,,Overcast,240,2012-11-18 09:30:00
11:00 AM,46.4,42.8,87,29.98,5.0,SW,15.0,-,N/A,,Mostly Cloudy,230,2012-11-18 10:00:00
11:30 AM,48.2,42.8,82,29.98,5.0,SW,15.0,-,N/A,,Mostly Cloudy,230,2012-11-18 10:30:00
12:00 PM,48.2,42.8,82,29.95,5.0,SW,16.1,-,N/A,,Mostly Cloudy,230,2012-11-18 11:00:00
12:30 PM,48.2,42.8,82,29.95,5.0,SW,15.0,-,N/A,,Mostly Cloudy,230,2012-11-18 11:30:00
1:00 PM,48,42,74,29.98,5,WSW,13.4,,,,Mist,240,2012-11-18 12:00:00
1:00 PM,48.2,42.8,82,29.95,5.0,WSW,13.8,-,N/A,,Overcast,240,2012-11-18 12:00:00
1:30 PM,48.2,42.8,82,29.95,5.0,WSW,15.0,-,N/A,,Overcast,240,2012-11-18 12:30:00
2:00 PM,46.4,42.8,87,29.98,5.0,SW,15.0,-,N/A,,Overcast,230,2012-11-18 13:00:00
2:30 PM,46.4,42.8,87,29.98,5.0,WSW,13.8,-,N/A,,Overcast,240,2012-11-18 13:30:00
3:00 PM,46.4,42.8,87,29.98,4.3,WSW,11.5,-,N/A,,Overcast,240,2012-11-18 14:00:00
3:30 PM,46.4,42.8,87,29.98,4.3,WSW,9.2,-,N/A,,Overcast,250,2012-11-18 14:30:00
4:00 PM,46.4,41.0,81,29.98,3.7,WSW,11.5,-,N/A,,Overcast,250,2012-11-18 15:00:00
4:30 PM,44.6,42.8,93,29.98,3.7,WSW,10.4,-,N/A,,Overcast,240,2012-11-18 15:30:00
5:00 PM,44.6,42.8,93,30.01,3.7,WSW,11.5,-,N/A,,Overcast,240,2012-11-18 16:00:00
5:30 PM,44.6,42.8,93,30.01,3.7,SW,10.4,-,N/A,,Overcast,230,2012-11-18 16:30:00
6:00 PM,44.6,42.8,93,30.01,3.7,SW,11.5,-,N/A,,Overcast,230,2012-11-18 17:00:00
6:30 PM,44.6,41.0,87,30.01,3.7,SW,11.5,-,N/A,,Overcast,220,2012-11-18 17:30:00
7:00 PM,45,42,85,30.04,3,SW,13.4,,,,Mist,230,2012-11-18 18:00:00
7:00 PM,44.6,41.0,87,30.01,3.1,SW,12.7,-,N/A,,Overcast,230,2012-11-18 18:00:00
7:30 PM,44.6,41.0,87,30.01,3.1,SW,12.7,-,N/A,,Overcast,220,2012-11-18 18:30:00
8:00 PM,44.6,41.0,87,30.01,3.7,SW,11.5,-,N/A,,Overcast,220,2012-11-18 19:00:00
8:30 PM,44.6,41.0,87,30.04,3.7,SW,12.7,-,N/A,,Overcast,220,2012-11-18 19:30:00
9:00 PM,44.6,41.0,87,30.04,3.7,SW,11.5,-,N/A,,Overcast,220,2012-11-18 20:00:00
9:30 PM,44.6,41.0,87,30.04,3.7,SW,10.4,-,N/A,,Overcast,220,2012-11-18 20:30:00
10:00 PM,44.6,41.0,87,30.04,4.3,SW,9.2,-,N/A,,Overcast,220,2012-11-18 21:00:00
10:30 PM,44.6,41.0,87,30.06,4.3,SW,9.2,-,N/A,,Overcast,220,2012-11-18 21:30:00
11:00 PM,44.6,41.0,87,30.06,5.0,SW,9.2,-,N/A,,Overcast,230,2012-11-18 22:00:00
11:30 PM,44.6,41.0,87,30.06,5.0,SW,9.2,-,N/A,,Overcast,230,2012-11-18 22:30:00